Flag for Germany Weather past 2 weeks in Erfurt, Thuringia, Germany

Now
54 °F

Clear.


Feels Like: 49 °F
Forecast: 51 / 67 °F
Wind: 16 mph from West

Location: Erfurt-Bindersleben

Current Time: Jul 30, 2015 at 12:59:22 AM

Latest Report: Jul 30, 2015 at 12:20 AM


Visibility: 10 mi

Pressure: 29.86 "Hg

Humidity: 67%

Dew point: 43 °F

Location of ErfurtLocation

Historic Weather in Erfurt — Graph

°F

Erfurt temperature yesterday

Maximum temperature yesterday: 66 °F (at 2:50 PM)
Minimum temperature yesterday: 52 °F (at 5:50 AM)
Average temperature yesterday: 59 °F

Past Weeks' High & Low Weather Summary

 TemperatureHumidityPressure
High91 °F (Jul 17, 3:50 PM)100% (Jul 19, 4:50 AM)30.12 "Hg (Jul 19, 4:50 AM)
Low50 °F (Jul 26, 5:50 AM)23% (Jul 17, 3:50 PM)29.62 "Hg (Jul 25, 4:50 AM)
Average68 °F66%29.91 "Hg
* Reported Jul 14 11:20 PM — Jul 29 11:20 PM, Erfurt, Weather by CustomWeather, © 2015

Note: Actual official high and low records may vary slightly from our data, if they occured in-between our weather recording intervals... More about our weather records

Advertising

Erfurt weather history for previous 24 hours

 ConditionsComfort  
Time TempWeatherWind HumidityBarometerVisibility
11:20 PM
Wed, Jul 29
54 °FClear.12 mph63%29.86 "Hg10 mi
10:50 PM55 °FClear.12 mph59%29.86 "Hg10 mi
10:20 PM55 °FClear.10 mph59%29.86 "Hg10 mi
9:50 PM57 °FSunny.7 mph55%29.86 "Hg10 mi
9:20 PM57 °FSunny.15 mph51%29.83 "Hg10 mi
8:50 PM59 °FSunny.18 mph48%29.80 "Hg10 mi
8:20 PM61 °FSunny.15 mph48%29.80 "Hg10 mi
7:50 PM63 °FPassing clouds.15 mph45%29.80 "HgN/A
7:20 PM63 °FPassing clouds.15 mph49%29.80 "HgN/A
6:50 PM63 °FPassing clouds.12 mph49%29.77 "HgN/A
6:20 PM63 °FPassing clouds.15 mph49%29.77 "HgN/A
5:50 PM63 °FPassing clouds.12 mph49%29.77 "HgN/A
5:20 PM59 °FSprinkles. Scattered clouds.12 mph63%29.77 "HgN/A
4:50 PM61 °FSprinkles. Scattered clouds.13 mph63%29.77 "HgN/A
4:20 PM59 °FSprinkles. Partly sunny.14 mph72%29.74 "HgN/A
3:50 PM63 °FSprinkles. Partly sunny.20 mph49%29.74 "HgN/A
3:20 PM64 °FScattered clouds.17 mph46%29.71 "HgN/A
2:50 PM66 °FScattered clouds.15 mph43%29.74 "HgN/A
2:20 PM64 °FScattered clouds.16 mph46%29.74 "HgN/A
1:50 PM63 °FPartly sunny.15 mph45%29.74 "HgN/A
1:20 PM63 °FScattered clouds.14 mph49%29.74 "HgN/A
12:50 PM63 °FScattered clouds.18 mph42%29.74 "HgN/A
12:20 PM64 °FScattered clouds.15 mph49%29.74 "HgN/A
11:50 AM63 °FPassing clouds.15 mph52%29.77 "HgN/A
11:20 AM61 °FScattered clouds.15 mph55%29.77 "HgN/A
10:50 AM61 °FScattered clouds.13 mph52%29.77 "HgN/A
10:20 AM59 °FPartly sunny.12 mph59%29.77 "HgN/A
9:20 AM57 °FScattered clouds.10 mph72%29.80 "HgN/A
8:50 AM55 °FScattered showers. Partly sunny.10 mph77%29.80 "HgN/A
8:20 AM55 °FScattered showers. Partly sunny.12 mph77%29.80 "HgN/A
7:50 AM55 °FScattered clouds.12 mph77%29.80 "HgN/A
7:20 AM55 °FSprinkles. Broken clouds.7 mph72%29.80 "HgN/A
6:50 AM55 °FPartly sunny.9 mph72%29.80 "HgN/A
6:20 AM54 °FPassing clouds.9 mph72%29.80 "HgN/A
5:50 AM52 °FPassing clouds.9 mph77%29.80 "HgN/A
5:20 AM54 °FPassing clouds.10 mph67%29.80 "HgN/A
4:50 AM54 °FPassing clouds.9 mph67%29.80 "HgN/A
4:20 AM55 °FPassing clouds.10 mph63%29.80 "HgN/A
3:50 AM57 °FPassing clouds.14 mph55%29.80 "HgN/A
3:20 AM55 °FClear.10 mph67%29.80 "Hg10 mi
2:50 AM55 °FClear.10 mph67%29.80 "Hg10 mi
2:20 AM57 °FClear.8 mph59%29.80 "Hg10 mi
1:50 AM57 °FClear.8 mph63%29.80 "Hg10 mi
1:20 AM57 °FClear.5 mph63%29.80 "Hg10 mi
12:50 AM57 °FClear.6 mph59%29.80 "Hg10 mi
Weather by CustomWeather, © 2015

See weather overviewHow to use our weather pages